Αρχική σελίδα
METAR-TAF:

METAR-TAF

Αεροδρόμια :

O'Neill Municipal Airport (John L. Baker Field)

O'Neill, Νεμπράσκα, Ηνωμένες Πολιτείες Αμερικής

γεωγραφικό πλάτος: 42-28N, γεωγραφικό μήκος: 098-41W, υψόμετρο: 619 μ

Παρών καιρός

Η αναφορά έγινε 22 λεπτά πριν, στις 17:15 UTC
Άνεμος 9 kt από
Θερμοκρασία -13°C
Υγρασία 78%
Πίεση 1032 hPa
Ορατότητα: 16.1 χλμ
Καθαρός ουρανός

METAR: KONL 181715Z AUTO 32009KT 10SM CLR M13/M16 A3047 RMK AO2 T11301165

Χρόνος: 11:37 (17:37 UTC)


TAF: λείπει

Μετεωρολογικές αναφορές και προγνώσεις για περισσότερα από 4000 αεροδρόμια (δελτία METAR και TAF).

Οι διαθέσιμοι σταθμοί απεικονίζονται στο χάρτη με κίτρινες και κόκκινες κουκκίδες.

Μετακινήστε το ποντίκι πάνω από τις κουκκίδες για να δείτε το όνομα του σταθμού.

Στη συνέχεια, κάντε κλικ για να δείτε τις μετεωρολογικές αναφορές και τις προγνώσεις καιρού.

Για να αλλάξετε το χάρτη: κάντε κλικ στα πράσινα κουμπιά με τον μαύρο σταυρό για να ζουμάρετε, στο πράσινο κουμπί με την παύλα για να αφαιρέσετε το ζουμ ή στα πράσινα βέλη για να αντιπαραβάλλετε χάρτες.


METAR-TAF: